Temp
22 22 20 20 21 21 21 22 21 20 20 20 19 19 19 20 19 19 19 19 19 19 19 19 19 18 18 18 18 17 17 18 18 19 18 18 18 18 18 18 18 18 17
22 22 21 20 19 20 21 21 21 20 20 20 20 19 19 19 19 19 19 19 19 19 19 19 19 19 18 17 17 18 18 19 19 19 19 18 17 17 18 18 18 17 18
21 21 21 20 20 20 20 21 21 21 20 20 20 19 19 19 19 19 19 19 19 19 19 19 18 18 17 18 19 19 20 20 19 19 19 19 18 17 17 17 18 18 18
22 20 20 20 20 20 20 20 20 20 20 20 20 20 19 19 19 19 19 19 19 19 19 19 18 18 19 19 20 20 20 20 20 20 19 19 17 17 17 17 17 17 17
22 21 20 20 20 20 20 20 20 20 20 20 20 20 19 19 18 19 19 19 19 19 18 19 18 19 19 19 20 20 20 20 20 20 19 18 17 16 16 17 17 17 17
22 21 21 20 20 20 19 19 19 20 19 19 19 20 19 19 19 19 19 20 19 18 18 18 18 19 19 19 19 19 20 20 20 19 19 18 17 16 16 16 16 16 17
22 21 21 20 20 19 19 19 19 19 19 19 19 19 19 19 19 19 19 19 19 18 18 17 18 18 19 19 19 19 20 20 20 19 18 18 17 16 16 16 17 16 17
22 21 21 20 20 19 19 19 19 20 20 19 19 19 19 19 19 19 19 19 18 18 18 18 17 18 18 19 19 19 20 20 20 19 19 18 17 16 17 18 18 18 18
22 21 19 20 20 19 19 19 19 19 20 20 19 19 19 19 18 19 19 18 18 18 18 18 17 17 18 18 19 19 20 20 20 19 19 19 17 17 17 17 17 18 18
20 18 19 19 19 19 19 19 19 19 19 19 19 19 19 18 18 18 18 18 18 17 17 17 18 18 18 18 19 19 20 20 19 20 19 19 18 17 18 18 18 17 17
18 17 17 17 19 19 18 19 19 19 19 19 18 18 19 18 17 17 18 18 17 17 17 18 18 18 19 19 19 19 20 20 20 20 20 19 18 18 18 18 17 17 17
17 18 16 17 17 19 18 18 19 18 18 18 17 17 18 17 17 17 17 18 17 17 17 18 18 19 19 19 20 20 20 20 20 20 20 19 19 18 17 17 17 17 17
18 18 17 16 16 16 18 19 18 18 17 17 17 17 18 17 17 17 17 17 16 17 18 18 19 19 20 19 20 20 20 20 20 20 20 19 19 18 17 17 17 17 17
21 21 20 19 18 15 16 19 18 18 18 19 18 19 18 18 17 17 17 16 17 18 19 19 19 20 19 20 20 20 20 20 20 20 20 20 19 19 18 18 18 17 17
16 18 16 19 17 15 19 18 19 19 19 20 19 20 20 19 18 18 18 18 18 19 19 19 19 20 20 20 20 20 20 20 21 21 20 20 19 19 19 18 18 18 18
17 16 17 18 16 15 19 17 20 20 21 20 20 20 20 19 19 19 19 19 19 19 20 20 20 20 20 20 20 20 21 21 21 21 20 20 20 19 19 19 19 18 18
15 15 15 16 18 18 16 17 21 21 20 20 20 20 20 19 19 19 19 19 20 20 20 20 20 20 20 20 20 20 21 21 21 21 21 21 20 20 19 19 18 18 18
16 15 16 16 17 17 16 16 20 21 20 20 20 20 19 19 19 19 19 19 19 19 20 20 20 20 20 20 20 20 20 21 21 21 21 21 21 20 19 19 18 18 18
16 15 15 15 17 16 15 16 18 20 20 19 19 19 19 19 19 19 19 19 20 20 19 19 20 20 20 20 20 20 21 20 21 21 21 21 21 20 19 18 18 17 17
15 16 15 14 17 18 17 16 17 19 19 19 19 19 19 19 19 19 19 20 20 19 19 19 19 20 20 20 20 20 21 21 21 21 21 21 20 19 19 18 17 17 17
14 15 15 15 15 17 18 18 18 18 19 20 19 19 19 19 19 19 19 20 20 19 19 19 19 20 20 20 19 20 20 20 20 20 20 20 19 19 18 18 17 17 16
14 14 15 15 16 17 18 18 19 20 19 20 20 20 19 19 19 19 19 19 19 19 19 19 19 19 19 19 18 18 16 18 20 20 20 19 19 19 18 18 17 16 16
14 14 15 15 16 18 18 18 19 18 19 19 19 19 19 19 19 19 18 18 18 19 19 19 19 18 18 17 17 16 15 15 17 19 19 19 19 18 18 17 17 16 15
14 14 15 15 16 16 17 18 19 18 17 18 19 19 18 18 18 18 18 18 18 18 17 18 18 17 17 16 15 15 15 15 14 15 17 18 18 17 17 16 16 15 14
14 14 15 15 16 15 16 16 17 17 17 17 16 16 16 16 17 17 17 17 17 17 17 17 16 17 17 15 16 15 14 14 15 14 14 16 16 16 16 15 15 14 13
13 14 14 14 15 15 15 15 15 15 17 17 17 16 16 15 16 16 16 16 16 16 16 17 16 16 16 17 15 15 15 14 14 13 13 14 14 16 15 15 14 13 13
Height
750 753 763 767 770 773 776 779 782 786 790 792 795 797 799 801 804 806 807 808 811 812 815 816 818 819 821 822 822 822 822 823 824 824 824 825 826 826 826 827 826 827 827
746 753 762 767 770 773 777 779 782 786 790 792 795 798 800 802 806 808 809 811 812 814 816 818 820 821 823 824 824 825 825 826 827 827 827 828 828 829 829 829 829 829 829
746 753 759 767 771 774 777 780 783 786 790 793 795 799 801 803 806 809 811 813 814 816 818 819 821 823 824 825 826 827 828 829 829 830 830 830 830 831 831 831 831 832 832
747 754 761 765 770 774 777 780 783 786 789 793 795 799 802 804 807 810 813 815 817 819 820 822 823 824 825 826 828 829 831 831 832 832 833 832 832 833 833 833 833 833 834
747 755 761 766 769 773 777 779 783 786 789 792 796 798 802 805 808 811 815 817 819 822 823 824 824 825 827 828 830 831 832 833 834 835 835 834 834 834 835 835 834 835 835
750 754 760 765 770 774 777 780 782 785 789 792 796 799 802 806 809 812 815 819 822 823 825 826 826 827 828 830 831 833 834 835 835 837 837 836 836 836 837 837 836 836 836
753 755 757 763 769 774 777 781 782 784 788 792 796 799 802 806 810 813 816 820 823 825 827 828 828 829 831 832 833 834 835 836 838 838 838 838 838 838 838 838 838 838 838
754 753 756 761 767 773 777 780 783 785 788 791 796 800 803 806 811 814 818 821 824 826 828 829 831 831 832 833 835 836 836 837 839 839 839 839 839 839 839 839 840 840 840
756 757 760 759 767 771 776 779 783 785 787 792 795 800 803 807 811 815 819 822 824 827 829 831 832 834 835 835 836 837 838 838 839 840 840 841 841 841 841 841 841 841 842
754 756 758 764 768 772 778 780 782 785 787 790 795 799 802 807 811 815 819 822 825 827 829 831 833 834 836 836 837 838 839 840 841 841 841 842 842 843 843 842 842 842 842
754 757 759 761 771 777 778 781 783 786 788 790 794 799 802 807 811 814 819 822 825 827 829 831 833 835 836 837 838 839 839 840 841 842 842 843 843 843 843 844 844 844 844
747 753 759 761 768 781 780 782 783 786 788 789 793 797 801 807 810 813 818 821 824 826 828 831 833 835 836 837 838 839 840 840 842 842 842 843 844 844 845 845 844 844 845
744 748 754 759 770 771 777 780 783 784 787 789 792 796 799 805 809 812 816 821 824 825 828 830 832 834 835 837 838 839 840 841 841 842 842 843 844 844 845 845 845 844 844
740 744 747 751 751 769 776 775 779 781 784 788 790 794 798 803 807 810 813 818 822 825 827 829 831 833 835 837 838 839 840 840 841 841 841 842 843 844 844 845 844 844 843
737 739 742 740 746 765 766 769 773 777 780 783 787 792 796 801 805 808 811 816 819 823 826 828 830 832 834 836 836 838 839 839 839 840 840 841 841 842 842 843 843 842 842
733 737 737 738 744 757 763 766 769 771 776 780 784 789 793 798 803 807 809 814 819 821 825 827 829 830 832 833 835 836 837 838 838 839 839 839 839 841 840 841 840 840 840
731 734 737 733 739 756 761 743 763 768 772 777 783 786 791 796 801 806 809 813 816 820 823 826 828 829 831 831 833 834 835 835 836 837 837 837 838 838 839 839 839 839 838
731 735 733 733 727 750 758 757 762 765 768 775 782 787 791 795 800 803 807 810 814 818 820 823 825 826 829 830 831 832 833 834 834 835 835 835 835 836 837 837 838 837 835
731 733 732 734 725 749 761 758 763 762 769 773 781 786 790 794 798 801 805 808 811 815 818 821 823 825 827 829 829 830 831 832 832 833 833 833 833 833 834 835 835 834 832
726 729 732 735 730 733 757 761 763 764 768 774 780 784 790 793 797 801 804 807 809 813 815 818 821 823 825 826 828 828 828 829 830 831 831 830 830 831 831 832 832 832 830
725 726 728 732 740 734 752 755 760 762 767 772 776 782 787 791 795 799 802 805 808 810 812 815 817 821 822 825 825 825 826 826 826 828 827 828 828 829 829 830 830 829 830
726 725 726 730 734 737 747 751 757 758 766 772 776 783 786 790 793 797 800 804 804 807 809 812 814 817 817 821 824 826 827 825 824 824 824 826 828 829 828 827 827 827 827
722 722 724 728 732 742 747 752 758 762 767 773 777 781 785 789 792 795 797 802 803 803 806 809 812 815 816 813 820 825 825 826 823 822 822 823 825 826 826 824 824 825 824
717 717 724 730 739 742 748 752 757 761 767 775 779 781 783 788 794 794 796 800 802 806 805 806 807 809 811 810 815 816 820 825 823 823 821 822 823 823 824 823 823 822 823
715 718 726 734 738 743 749 751 757 759 772 777 780 780 784 790 793 792 795 795 800 801 802 805 808 806 804 806 806 812 816 821 819 820 821 819 819 820 820 821 821 821 821
711 720 724 733 738 744 753 757 762 769 770 774 777 780 784 787 789 791 790 795 793 792 797 802 804 804 800 794 805 808 809 813 814 816 818 816 819 817 819 820 819 818 819
Wind_Speed
29 29 26 23 21 21 20 20 19 18 18 19 18 18 17 18 17 17 18 19 18 16 18 18 17 19 20 18 17 16 17 18 18 18 18 18 18 18 20 13 14 16 15
33 30 28 24 21 20 19 19 19 19 19 20 19 19 18 18 17 18 17 19 18 19 18 18 17 18 17 16 16 16 18 18 19 18 16 16 17 17 19 18 18 16 15
31 30 30 24 21 20 19 18 18 20 19 21 20 20 19 19 19 18 18 19 20 21 18 18 18 17 16 15 15 15 19 18 14 14 15 13 15 15 16 18 18 15 16
30 29 27 25 21 20 18 16 17 20 21 22 22 21 21 19 19 19 20 19 20 20 18 17 17 14 14 15 16 19 18 16 14 15 14 10 12 14 13 14 15 16 16
30 28 25 25 22 19 18 17 17 21 23 23 23 23 23 20 20 20 23 20 19 19 19 18 15 15 15 15 17 20 18 16 15 13 14 11 12 12 12 12 11 11 13
29 28 27 25 21 19 18 16 19 22 22 24 24 24 23 21 21 23 22 20 17 17 17 17 15 14 15 15 16 17 16 15 15 13 9 8 13 12 12 12 12 11 10
24 27 26 26 22 19 18 17 19 23 23 24 24 25 25 23 22 25 21 20 19 17 15 16 15 14 14 14 15 15 15 15 12 10 7 9 12 11 11 11 11 11 10
21 27 27 26 23 20 20 18 17 22 24 24 24 25 25 24 23 24 21 20 18 17 17 15 13 12 12 11 11 12 13 12 11 7 4 8 10 10 10 11 11 10 10
20 23 23 27 23 20 22 20 17 20 23 24 25 27 27 25 24 24 22 20 18 16 15 14 12 10 9 9 8 9 9 8 11 5 4 6 8 8 8 9 9 9 9
21 21 23 21 21 21 21 21 19 16 21 25 28 29 27 25 25 24 22 20 17 16 15 14 11 10 8 7 7 7 9 8 7 6 2 2 6 6 6 6 7 6 7
17 15 18 15 16 18 20 22 20 18 22 28 30 29 27 24 24 23 22 20 17 16 15 12 10 8 7 5 4 5 6 5 4 3 4 1 2 3 4 4 4 5 6
21 14 8 8 4 15 21 22 22 22 25 29 30 28 25 24 23 22 21 20 17 15 13 11 9 7 5 4 1 1 4 4 2 2 2 2 2 2 0 2 3 4 5
19 17 18 18 20 13 21 26 22 26 24 25 27 24 21 24 24 24 22 19 17 16 13 11 8 7 5 5 6 1 1 2 4 4 3 3 3 2 2 2 4 4 5
21 17 28 33 26 31 20 31 25 28 28 26 24 24 24 25 25 22 23 21 17 15 11 8 6 5 4 7 6 4 6 2 2 6 5 2 2 2 2 3 4 6 8
20 22 23 29 33 22 37 35 31 29 30 29 27 26 28 27 25 21 19 19 15 13 13 10 10 9 8 8 6 7 5 7 5 7 5 5 3 3 4 4 6 7 9
25 14 17 26 24 26 32 35 34 31 29 30 29 28 28 25 25 23 22 20 17 15 13 12 10 10 9 8 9 8 8 7 6 5 6 7 6 3 4 6 7 8 9
18 13 17 17 25 26 22 36 34 32 31 28 25 25 24 24 24 22 21 19 17 14 13 11 10 9 9 9 10 8 9 9 7 8 10 7 3 4 7 5 7 8 12
19 23 17 26 29 16 14 21 33 30 29 30 26 24 24 24 24 23 21 19 17 14 13 12 11 10 10 9 9 10 9 9 8 8 7 7 6 6 1 4 8 11 13
21 21 24 31 42 30 20 24 28 29 27 29 28 27 24 24 24 23 21 18 17 16 13 12 10 10 11 11 10 11 12 13 9 7 7 9 6 4 3 8 8 9 9
23 24 29 27 32 32 23 25 22 23 24 23 24 26 25 23 22 20 18 16 16 14 12 12 12 11 11 9 11 13 13 11 10 11 11 3 0 4 7 6 6 6 7
11 23 28 31 28 36 31 29 25 21 18 20 22 20 23 21 20 19 16 15 14 14 14 13 15 12 11 12 11 11 9 13 15 16 7 4 2 3 3 5 5 6 8
17 22 27 32 27 27 30 26 24 23 19 19 21 18 23 20 20 19 18 18 18 17 16 16 10 10 6 4 5 4 2 8 16 11 7 5 6 7 5 5 6 7 6
21 22 19 20 21 18 22 23 18 19 14 13 18 17 16 14 16 16 13 14 15 17 18 17 17 14 11 8 9 5 2 3 2 3 6 10 8 6 6 7 5 6 8
20 24 20 19 15 12 12 16 15 14 8 5 11 13 6 6 8 8 6 8 8 13 14 17 19 21 17 12 9 16 11 4 2 1 1 5 9 15 13 7 5 3 6
12 22 23 22 13 10 9 11 7 8 12 8 8 12 10 12 11 11 12 10 14 12 14 15 19 21 16 11 12 12 13 9 7 2 3 6 8 10 7 10 10 7 6
19 20 14 13 14 10 11 9 10 11 8 8 7 7 12 14 17 18 15 20 22 16 19 23 27 26 21 14 19 21 16 8 8 6 3 5 6 5 7 8 8 7 9
Wind_Direction
147 162 170 166 163 162 164 162 161 160 165 161 152 145 144 142 138 136 133 129 128 127 119 113 104 100 98 96 98 99 97 96 94 93 98 89 79 70 73 71 72 70 68
152 162 170 173 166 165 166 167 169 167 167 164 158 151 148 143 140 138 138 134 123 125 121 114 107 103 100 98 97 100 101 96 92 87 77 86 82 72 75 75 70 71 61
148 161 168 175 172 170 170 172 174 175 172 170 166 155 155 148 144 141 132 133 126 125 121 119 112 110 105 103 102 101 102 100 98 95 84 75 83 74 76 76 71 72 64
145 162 165 174 178 174 174 176 177 177 178 176 172 165 160 152 147 145 143 135 129 125 126 126 116 116 110 108 106 106 102 86 77 87 96 82 83 77 71 74 73 71 68
148 162 171 177 178 177 177 176 175 175 176 177 175 170 164 153 148 146 146 141 136 132 135 137 139 123 116 112 110 109 102 92 87 90 88 82 82 79 80 82 84 77 71
153 160 172 177 179 177 174 177 176 176 178 178 174 174 162 153 150 152 149 143 144 144 148 147 138 124 121 117 114 113 102 92 92 83 94 92 87 81 77 75 75 73 71
155 167 168 177 180 180 172 178 179 177 179 179 179 173 161 155 155 157 146 150 152 144 143 142 136 129 124 119 117 115 103 100 96 102 90 89 88 84 81 79 77 74 72
162 168 172 175 176 180 172 181 178 180 181 179 176 173 159 153 152 151 154 152 154 151 147 148 140 133 129 125 119 118 113 109 107 105 87 99 94 90 85 81 77 72 68
167 161 167 169 177 178 179 183 181 180 181 180 174 168 157 155 155 157 156 155 155 154 153 151 147 142 138 132 125 122 121 97 114 118 113 84 97 92 86 80 73 67 63
148 150 160 171 171 174 182 187 181 173 177 176 170 164 158 154 158 157 160 159 156 158 155 152 150 147 147 146 136 128 125 104 104 117 122 71 104 97 86 79 74 65 54
147 118 105 116 162 181 186 188 182 170 167 165 164 159 154 157 160 160 164 164 162 166 159 159 159 160 154 152 146 139 133 111 136 142 202 4 125 107 84 69 55 44 38
170 170 151 87 336 211 193 190 181 174 167 162 156 155 155 158 162 162 168 169 170 175 167 168 168 166 167 134 107 178 137 114 169 162 229 286 235 169 85 38 29 20 10
210 212 213 195 227 308 191 189 181 178 171 159 161 154 163 159 162 171 166 171 175 178 176 178 179 177 150 229 222 260 46 201 218 194 240 286 235 226 218 276 320 332 331
217 231 222 233 242 270 296 183 181 176 176 176 176 167 163 169 164 168 176 177 181 178 174 182 169 164 185 213 203 240 223 203 222 203 253 281 259 240 242 261 274 291 297
214 220 211 207 236 264 286 193 181 179 178 177 173 173 169 169 165 170 169 171 174 176 187 193 209 202 215 218 215 222 215 230 209 217 234 264 286 242 254 272 292 300 291
231 229 223 222 210 239 277 211 177 176 176 174 173 181 169 167 169 173 167 173 180 187 188 196 199 205 212 218 222 224 233 237 232 229 244 250 252 271 279 287 296 298 300
217 223 220 207 214 235 255 184 173 167 170 170 172 165 167 168 173 172 170 176 180 187 183 197 206 212 216 214 218 224 226 233 237 232 232 250 236 285 281 294 311 310 310
203 199 183 169 164 182 190 192 180 165 158 166 174 172 174 177 177 174 175 178 177 185 186 192 201 213 221 228 227 230 232 230 231 246 248 223 275 264 44 349 329 319 319
195 174 151 160 150 159 205 208 198 174 168 163 172 178 177 176 179 177 177 178 181 182 185 194 202 212 218 226 234 240 230 231 214 225 244 249 229 194 272 296 294 315 319
180 185 180 173 157 155 204 208 191 187 177 176 176 176 178 176 176 176 180 180 184 181 187 198 210 215 230 243 235 233 236 235 248 232 246 214 291 285 309 298 302 314 318
204 188 186 176 185 163 191 180 170 172 184 181 178 174 181 180 181 180 180 183 183 189 194 203 207 215 221 233 265 249 233 221 240 245 176 178 198 299 249 281 299 312 311
235 197 190 172 171 166 179 188 184 180 169 167 168 168 175 179 181 185 190 189 189 191 196 204 195 193 191 198 249 268 287 257 246 193 181 207 228 255 269 261 290 301 306
213 199 186 171 155 170 181 170 168 165 169 169 179 175 172 182 189 191 193 207 217 215 216 220 224 226 217 201 249 211 305 234 182 158 165 177 201 246 252 246 262 281 296
212 182 187 177 173 156 161 168 159 138 137 195 204 192 182 193 194 185 201 230 234 237 231 231 228 226 220 227 199 202 207 222 195 282 275 234 255 272 245 258 240 270 324
177 155 176 180 180 154 139 115 125 105 167 168 150 155 192 214 226 224 223 227 228 247 236 236 222 208 208 201 189 185 203 216 215 155 249 267 245 226 237 250 256 282 264
80 94 119 164 178 172 185 144 145 207 185 209 227 254 261 242 240 239 239 236 236 245 238 238 229 223 220 205 223 213 195 183 211 191 214 226 242 261 241 255 266 248 257